Location: Caixon
(43.4106°N, 0.0273°E)
Time: 22:51:17
(UTC+00:00)

Cosmos 921 Rocket - Pass Details

Date: 16 October 2021
Orbit: 572 x 631 km, 75.8° (Epoch: 07 December)

Event Time Altitude Azimuth Distance (km) Brightness Sun altitude
Exits shadow 04:56:44 21° 302° (WNW) 1,381 4.4 -15.0°
Drops below altitude 10° 04:59:50 10° 348° (NNW) 1,934 5.5 -14.4°
Sets 05:02:32 0° 5° (N) 2,829 6.5 -13.9°
